www.pogodaiklimat.ru

Погода и климат >> Архив погоды >> Россия >> Иркутская область >> Тырка


ПОГОДА в Тырке

  • Прогноз погоды в Тырке
  • Монитор погоды в Тырке

АРХИВ ПОГОДЫ в Тырке

Время (UTC), дата Ветер
(напр.,м/с)
 
Видим.   Явления Облачность Т
(С)
Тd
(С)
f
(%)
Тe
(С)
Тes
(С)
Комфортность P
(гПа)
Po
(гПа)
Тmin
(С)
Tmax
(С)
R
(мм)
R24
(мм)
S
(см)
12 11.06 ЮЗ 1 20 км ливневой дождь 10/10 300 м
[Cb cap]
+11.9 +10.9 94 +12 +12 1006.3 931.7 +18.5 7
15 11.06 Ю 2 н/о {ливн. осадки} 9/6 600 м
[Cb cap Ac trans Ci fib]
+10.9 +9.3 90 +10 +10 1010.6 932.8
18 11.06 штиль 0 н/о {ливн. осадки} 6/4 600 м
[Cb cap Ac trans Ci fib]
+8.9 +7.4 90 +8 +8 1011.6 935.7
21 11.06 ЮЗ 1 50 км 4/4 600 м
[Sc diur, vesp]
+8.1 +6.8 91 +7 +7 1014.2 938.0
00 12.06 СВ 3 50 км 6/1 600 м
[Cu hum As trans Ci fib]
+12.1 +4.9 61 +11 +14 1014.9 939.5 +7.7 0.0
03 12.06 З 7 50 км 8/8 600 м
[Cb cap]
+14.3 +3.5 48 +12 +13 1014.7 939.9
06 12.06 СЗ 4 50 км 9/8 600 м
[Cu med, cong Ci sp]
+16.0 +3.4 43 +15 +17 1014.2 939.9
09 12.06 З 4 50 км 9/9 600 м
[Cu med, cong Ac cast Ci sp]
+18.4 +3.2 36 +18 +19 1012.2 938.6
12 12.06 В 2 50 км 1/0
[As trans]
+16.4 +3.1 41 +17 +17 1012.1 938.0 +19.0
15 12.06 штиль 0 н/о ясно +9.9 +5.5 74 +9 +9 1014.4 938.6
18 12.06 штиль 0 н/о ясно +4.3 +3.3 93 +3 +3 1016.2 938.7
21 12.06 ЮВ 1 20 км туман на расстоянии 3/0
[Ci fib]
+1.3 +0.2 92 -1 -1 1018.3 939.8
00 13.06 штиль 0 50 км ясно +10.7 +5.2 69 +10 +17 1015.4 939.7 +1.3
03 13.06 З 3 50 км ясно +19.4 +4.8 38 +20 +32 1011.1 937.8
06 13.06 С 4 50 км 1/1 1000 м
[Cu hum]
+23.4 +4.7 30 +23 +33 комфорт 1008.0 935.9
09 13.06 СЗ 1 50 км 1/1 600 м
[Cu hum]
+25.3 +5.0 27 +25 +32 комфорт 1005.6 934.1
12 13.06 З 1 50 км 4/0
[Ci]
+25.0 +1.4 21 +24 +24 комфорт 1004.9 933.4 +25.8
15 13.06 З 1 н/о 10/0
[Ac trans Ci]
+13.0 +6.3 64 +13 +13 1008.4 933.8
18 13.06 штиль 0 н/о 9/0
[Ac trans Ci]
+10.0 +6.6 79 +9 +9 1009.5 934.1
21 13.06 штиль 0 50 км туман на расстоянии 8/0
[Ac As Ci fib]
+6.7 +6.3 97 +6 +6 1010.0 933.7
00 14.06 В 1 50 км 6/3 600 м
[Sc Ac trans Ci fib]
+15.0 +6.6 57 +16 +19 1006.7 932.7 +5.8
03 14.06 З 2 50 км 6/0
[Ac trans Ci sp]
+24.2 +8.6 37 +25 +36 комфорт 1002.4 931.0
06 14.06 Ю 2 50 км 9/0
[Ac lent Ci fib]
+28.7 +4.0 21 +27 +36 жарко 999.2 928.9
09 14.06 ЮВ 3 50 км 10/4 600 м
[Cb cap Ac As]
+27.9 +4.4 22 +26 +28 жарко 998.4 928.0
12 14.06 ЮВ 1 50 км 10/0
[Ac As]
+24.5 +8.0 35 +25 +25 комфорт 999.1 928.0 +29.2
15 14.06 штиль 0 н/о 10/3 600 м
[Sc Ac As]
+18.2 +11.7 66 +18 +18 1001.4 928.7
18 14.06 В 2 н/о 10/10 600 м
[Cb cap]
+18.9 +11.0 60 +20 +20 1001.2 928.7
21 14.06 СЗ 1 50 км 10/10 600 м
[Cb cap]
+15.8 +11.6 76 +17 +17 1001.8 928.5
00 15.06 СВ 1 50 км 10/10 600 м
[Cb cap]
+18.6 +12.9 69 +20 +20 1001.1 928.5 +15.3
03 15.06 СВ 2 50 км 9/8 600 м
[Cb cap Ac trans Ci sp]
+21.7 +12.6 56 +24 +26 комфорт 1000.1 928.4
06 15.06 СЗ 2 50 км 10/4 600 м
[Cb cap Ac trans Cs]
+25.4 +11.3 41 +27 +31 жарко 997.6 927.1
09 15.06 В 3 50 км 10/8 600 м
[Cb cap Cs]
+27.3 +8.4 30 +27 +28 жарко 996.6 926.3
12 15.06 Ю 3 50 км 9/6 600 м
[Cb cap Ac trans Ci sp]
+25.7 +6.3 29 +25 +25 комфорт 998.0 927.2 +28.1
15 15.06 З 2 н/о 9/9 600 м
[Cb cap]
+19.5 +13.0 66 +22 +22 комфорт 1002.7 930.3
18 15.06 штиль 0 н/о 9/8 600 м
[Cb cap Ci fib]
+16.4 +12.8 79 +16 +16 1004.1 930.8
21 15.06 ЮВ 1 50 км 9/3 600 м
[Sc diur, vesp Ac trans Ci fib]
+13.8 +12.5 92 +14 +14 1014.2 930.3
00 16.06 З 1 50 км 10/10 600 м
[Cb cap]
+16.2 +17 +17 1004.4 931.1 +13.3
03 16.06 штиль 0 50 км 10/8 600 м
[Sc Ac und]
+20.1 +14.1 68 +22 +23 комфорт 1003.4 931.1
06 16.06 ЮВ 5 50 км 8/6 1000 м
[Cu med, cong Ac trans]
+24.9 +13.1 48 +27 +29 жарко 1001.9 930.8
09 16.06 Ю 2 50 км 10/3 1000 м
[Sc diur, vesp Ac trans Ci fib]
+25.6 +7.3 31 +26 +28 жарко 1001.4 930.3
12 16.06 В 1 50 км 9/0
[Ac trans Ci sp]
+25.1 +8.9 36 +26 +26 жарко 1001.4 930.3 +26.1
15 16.06 штиль 0 н/о 9/0
[Ac trans Ci sp]
+17.1 +12.1 72 +17 +17 1004.5 931.2
18 16.06 В 1 н/о 10/10 600 м
[Cb cap]
+15.3 +12.0 81 +16 +16 1004.9 931.7
21 16.06 ЮВ 1 50 км 9/8 600 м
[Cb cap Ac trans Ci fib]
+14.9 +11.6 81 +15 +15 1005.4 931.6
00 17.06 штиль 0 50 км 6/3 600 м
[Cb cap Ac lent Ci fib]
+18.0 +12.0 68 +18 +22 1004.1 931.2 +14.5
03 17.06 В 2 50 км 8/3 600 м
[Cu med, cong Ac lent Ci fib]
+25.1 +10.9 41 +26 +33 жарко 1002.3 930.9
06 17.06 ЮВ 1 50 км 8/3 600 м
[Cu med, cong Ac lent Ci fib]
+27.1 +6.1 26 +26 +35 жарко 1001.0 930.3
09 17.06 ЮВ 1 50 км 6/4 600 м
[Cu med, cong Ci fib]
+28.8 +3.5 20 +27 +32 жарко 999.3 929.0
12 17.06 ЮВ 1 50 км 8/5 600 м
[Cb cap Ac trans Ci fib]
+25.5 +4.7 26 +25 +25 комфорт 1001.4 930.3 +29.2
15 17.06 штиль 0 н/о 4/3 600 м
[Cb cap Ci fib]
+16.8 +8.6 58 +17 +17 1005.4 932.0
18 17.06 ЮВ 2 н/о 3/1 600 м
[Sc diur, vesp Ci fib]
+12.9 +9.2 78 +12 +12 1007.9 933.4
21 17.06 В 1 50 км 4/3 600 м
[Cb cap Ci fib]
+11.8 +9.6 86 +12 +12 1010.3 935.3
00 18.06 З 2 50 км в посл. час ливневой дождь 10/10 600 м
[Cb cap]
+15.8 +13.1 84 +16 +16 1011.8 937.8 +10.6 0.0
03 18.06 З 2 50 км 10/10 600 м
[Cb cap]
+14.5 +11.1 80 +14 +14 1013.8 939.3
06 18.06 З 3 20 км ливневой дождь 10/10 1000 м
[Cb cap]
+13.8 +10.2 79 +13 +13 1014.8 940.0

 

Местоположение метеостанции Тырка (Иркутская область, Россия): широта 54.48 долгота 107.00 высота над уровнем моря 651 м.

В архиве по умолчанию представлена погода в Тырке за последнюю неделю. Архивные данные за месяц целиком и за предыдущие месяцы, начиная с января 2011 года, Вы можете получить, выбрав интересующий диапазон дат из раскрывающегося списка и нажав кнопку "Ввод!".


*Определитесь, кто Вы:
робот инопланетянин человек

Внимание! Время в таблицах - всемирное. Для получения местного времени необходимо прибавить поправку, которая равна 8 ч.

Смотрите также архив погоды в соседних городах и на ближайших метеорологических станциях:

Погода в Караме (Иркутская область, Россия) (84 км)
Погода в Качуге (Иркутская область, Россия) (91 км)
Погода в Солнечной (Иркутская область, Россия) (93 км)
Погода на Большом Ушканьем Острове (Бурятия, Россия) (120 км)
Погода в Жигалове (Иркутская область, Россия) (127 км)
Погода в Узуре (Иркутская область, Россия) (137 км)
Погода в Худжире (Иркутская область, Россия) (144 км)
Погода в Баргузинском Заповеднике (Бурятия, Россия) (163 км)
Погода в Усть-Баргузине (Бурятия, Россия) (176 км)
Погода в Даване (Бурятия, Россия) (182 км)

Пояснения к столбцам:

Ветер - указаны скорость ветра в м/с - средняя за 10 мин, порывы в срок и между сроками (в фигурных скобках) и направление, откуда дует ветер: С - северный, СВ - северо-восточный, В - восточный, ЮВ - юго-восточный, Ю - южный, ЮЗ - юго-западный, З - западный, СЗ - северо-западный.
Видимость - горизонтальная дальность видимости в метрах или километрах. При видимости от 1 до 10 км при отсутствии осадков обычно наблюдается дымка, при ухудшении видимости до 1 км и менее - туман. В сухую погоду видимость может ухудшаться дымом, пылью или мглою.
Явления - указаны атмосферные явления, наблюдавшиеся в срок или в последний час перед сроком; фигурными скобками обозначены явления, наблюдавшиеся между сроками (за 1-3 часа до срока); квадратными скобками обозначены град или гололедные отложения с указанием их диаметра в мм.
Облачность - указаны через наклонную черту общая и нижняя облачность в баллах и высота нижней границы облаков в метрах; квадратными скобками обозначены формы облаков: Ci - перистые, Cs - перисто-слоистые, Cc - перисто-кучевые, Ac - высококучевые, As - высокослоистые, Sc - слоисто-кучевые, Ns - слоисто-дождевые, Cu - кучевые, Cb - кучево-дождевые. Подробнее классификацию облаков см. в Атласе облаков (PDF).
T - Температура воздуха - температура, измеренная на высоте 2 м над землей.
Td - Температура точки росы - температура, при понижении до которой содержащийся в воздухе водяной пар достигнет насыщения.
f - Относительная влажность воздуха - влажноcть воздуха, измеренная на высоте 2 м над землей.
Te - Эффективная температура - температура, которую ощущает одетый по сезону человек в тени. Характеристика душности погоды. При расчете учитывается влияние влажности воздуха и скорости ветра на теплоощущения человека.
Tes - Эффективная температура на солнце - температура, которую ощущает человек, с поправкой на солнечный нагрев. Характеристика знойности погоды. Зависит от высоты солнца над горизонтом, облачности и скорости ветра. Ночью, в пасмурную погоду, а также при ветре 12 м/с и более поправка равна нулю.
P - Атмосферное давление - приведенное к уровню моря атмосферное давление.
Po - Атмосферное давление - измеренное на уровне метеостанции атмосферное давление.
Tmin - Минимальная температура - минимум температуры воздуха на высоте 2 м над землей.
Tmax - Максимальная температура - максимум температуры воздуха на высоте 2 м над землей.
R - Количество осадков - Количество выпавших осадков за период времени, мм. При наведении курсора мыши на число - период времени, за который выпало указанное количество осадков.
R24 - Количество осадков - Количество выпавших осадков за 24 часа, мм.
S - Снежный покров - Высота снежного покрова, см. При наведении курсора мыши на число - состояние снежного покрова и степень покрытия местности в баллах.